Location: 22
(39.7117°N, 89.5929°W)
Time: 19:19:41
(UTC-05:00)

Vanguard 3 - Pass Details

Date: 02 February 2023
Orbit: 508 x 3249 km, 33.4° (Epoch: 30 March)

Event Time Altitude Azimuth Distance (km) Brightness Sun altitude
Rises 20:39:58 0° 259° (W) 4,700 11.8 -38.8°
Reaches altitude 10° 20:42:34 10° 256° (WSW) 4,011 11.3 -39.2°
Maximum altitude 20:54:04 68° 177° (S) 2,612 9.4 -41.4°
Enters shadow 20:54:31 68° 167° (SSE) 2,644 9.3 -41.5°
Drops below altitude 10° 21:12:33 10° 100° (E) 6,115 - -44.8°
Sets 21:17:36 0° 98° (E) 7,213 - -45.7°
